When you browse on this site, cookies collect data to enhance your experience and personalize the content and advertising you see.
Visit our Privacy Policy to learn more. By continuing to use the site, you agree to this use of cookies and data.
EN

Hourly Weather Udok

Today, 19 September, Saturday

Time Temperature Precipitation Wind Pressure Humidity
00:00 +10°C° 0 mm 2 mps 608 mmHg 86%
01:00 +9°C° 0 mm 2 mps 608 mmHg 84%
02:00 +9°C° 0 mm 2 mps 607 mmHg 83%
03:00 +8°C° 0 mm 2 mps 607 mmHg 82%
04:00 +9°C° 0 mm 1 mps 607 mmHg 78%
05:00 +9°C° 0 mm 1 mps 607 mmHg 74%
06:00 +9°C° 0 mm 1 mps 607 mmHg 71%
07:00 +11°C° 0 mm 1 mps 608 mmHg 68%
08:00 +13°C° 0 mm 2 mps 609 mmHg 66%
09:00 +16°C° 0 mm 2 mps 610 mmHg 63%
10:00 +16°C° 0 mm 2 mps 610 mmHg 63%
11:00 +17°C° 0 mm 3 mps 610 mmHg 63%
12:00 +17°C° 0 mm 3 mps 611 mmHg 63%
13:00 +16°C° 0.1 mm 3 mps 610 mmHg 66%
14:00 +16°C° 0.1 mm 3 mps 610 mmHg 68%
15:00 +15°C° 0.1 mm 2 mps 610 mmHg 71%
16:00 +14°C° 0 mm 2 mps 609 mmHg 75%
17:00 +12°C° 0 mm 1 mps 609 mmHg 79%
18:00 +11°C° 0 mm 1 mps 609 mmHg 83%
19:00 +10°C° 0 mm 1 mps 609 mmHg 84%
20:00 +10°C° 0 mm 1 mps 609 mmHg 85%
21:00 +8°C° 0 mm 2 mps 609 mmHg 86%
22:00 +9°C° 0 mm 1 mps 609 mmHg 86%
23:00 +9°C° 0 mm 1 mps 609 mmHg 87%

Tomorrow, 20 September, Sunday

Time Temperature Precipitation Wind Pressure Humidity
00:00 +9°C° 0 mm 1 mps 610 mmHg 87%
01:00 +9°C° 0 mm 1 mps 609 mmHg 87%
02:00 +8°C° 0 mm 1 mps 609 mmHg 88%
03:00 +7°C° 0 mm 1 mps 609 mmHg 89%
04:00 +7°C° 0 mm 1 mps 609 mmHg 90%
05:00 +7°C° 0 mm 1 mps 610 mmHg 90%
06:00 +8°C° 0 mm 1 mps 610 mmHg 91%
07:00 +9°C° 0 mm 1 mps 610 mmHg 87%
08:00 +9°C° 0 mm 2 mps 611 mmHg 83%
09:00 +10°C° 0 mm 2 mps 611 mmHg 78%
10:00 +12°C° 0 mm 2 mps 612 mmHg 72%
11:00 +14°C° 0 mm 2 mps 612 mmHg 66%
12:00 +15°C° 0 mm 2 mps 612 mmHg 60%
13:00 +15°C° 0 mm 2 mps 612 mmHg 59%
14:00 +15°C° 0 mm 2 mps 612 mmHg 59%
15:00 +15°C° 0 mm 2 mps 612 mmHg 59%
16:00 +13°C° 0 mm 2 mps 611 mmHg 69%
17:00 +11°C° 0 mm 1 mps 610 mmHg 78%
18:00 +7°C° 0 mm 0 mps 609 mmHg 88%
19:00 +7°C° 0 mm 0 mps 610 mmHg 88%
20:00 +8°C° 0 mm 1 mps 610 mmHg 88%
21:00 +7°C° 0 mm 1 mps 610 mmHg 88%
22:00 +7°C° 0 mm 1 mps 610 mmHg 88%
23:00 +7°C° 0 mm 1 mps 610 mmHg 89%

Day after tomorrow, 21 September, Monday

Time Temperature Precipitation Wind Pressure Humidity
00:00 +7°C° 0 mm 1 mps 610 mmHg 89%
01:00 +7°C° 0 mm 1 mps 610 mmHg 89%
02:00 +7°C° 0 mm 1 mps 611 mmHg 89%
03:00 +8°C° 0 mm 1 mps 611 mmHg 90%
04:00 +7°C° 0 mm 1 mps 611 mmHg 90%
05:00 +7°C° 0 mm 1 mps 611 mmHg 90%
06:00 +6°C° 0 mm 1 mps 610 mmHg 90%
07:00 +8°C° 0 mm 1 mps 612 mmHg 83%
08:00 +9°C° 0 mm 2 mps 613 mmHg 76%
09:00 +12°C° 0 mm 2 mps 614 mmHg 69%
10:00 +13°C° 0 mm 2 mps 614 mmHg 69%
11:00 +13°C° 0 mm 2 mps 614 mmHg 69%
12:00 +14°C° 0 mm 2 mps 614 mmHg 69%
13:00 +14°C° 0.1 mm 2 mps 614 mmHg 71%
14:00 +13°C° 0.1 mm 2 mps 613 mmHg 74%
15:00 +13°C° 0.1 mm 2 mps 613 mmHg 76%
16:00 +12°C° 0 mm 2 mps 613 mmHg 82%
17:00 +11°C° 0 mm 1 mps 612 mmHg 87%
18:00 +10°C° 0 mm 1 mps 612 mmHg 93%
19:00 +10°C° 0 mm 1 mps 612 mmHg 94%
20:00 +9°C° 0 mm 1 mps 612 mmHg 94%
21:00 +9°C° 0 mm 1 mps 612 mmHg 95%
22:00 +9°C° 0 mm 1 mps 612 mmHg 94%
23:00 +9°C° 0 mm 1 mps 611 mmHg 94%

22 September, Tuesday

Time Temperature Precipitation Wind Pressure Humidity
00:00 +9°C° 0 mm 1 mps 611 mmHg 93%
01:00 +9°C° 0 mm 1 mps 611 mmHg 93%
02:00 +8°C° 0 mm 1 mps 610 mmHg 93%
03:00 +8°C° 0 mm 1 mps 610 mmHg 94%
04:00 +8°C° 0 mm 1 mps 610 mmHg 93%
05:00 +8°C° 0 mm 1 mps 610 mmHg 92%
06:00 +8°C° 0 mm 1 mps 610 mmHg 91%
07:00 +10°C° 0 mm 1 mps 611 mmHg 83%
08:00 +13°C° 0 mm 1 mps 612 mmHg 75%
09:00 +15°C° 0 mm 1 mps 613 mmHg 67%
10:00 +16°C° 0.3 mm 1 mps 613 mmHg 66%
11:00 +17°C° 0.3 mm 2 mps 614 mmHg 65%
12:00 +18°C° 0.3 mm 2 mps 614 mmHg 64%
13:00 +17°C° 0.6 mm 2 mps 614 mmHg 66%
14:00 +17°C° 0.6 mm 2 mps 614 mmHg 67%
15:00 +18°C° 0.6 mm 1 mps 613 mmHg 68%
16:00 +15°C° 0.3 mm 1 mps 613 mmHg 76%
17:00 +13°C° 0.3 mm 1 mps 612 mmHg 83%
18:00 +11°C° 0.3 mm 1 mps 611 mmHg 91%
19:00 +11°C° 0 mm 1 mps 612 mmHg 91%
20:00 +9°C° 0 mm 0 mps 612 mmHg 92%
21:00 +9°C° 0 mm 0 mps 612 mmHg 93%
22:00 +10°C° 0 mm 1 mps 612 mmHg 92%
23:00 +11°C° 0 mm 1 mps 613 mmHg 92%

23 September, Wednesday

Time Temperature Precipitation Wind Pressure Humidity
00:00 +11°C° 0 mm 1 mps 613 mmHg 91%
01:00 +11°C° 0 mm 1 mps 613 mmHg 92%
02:00 +11°C° 0 mm 1 mps 612 mmHg 92%
03:00 +11°C° 0 mm 1 mps 612 mmHg 93%
04:00 +10°C° 0 mm 1 mps 612 mmHg 94%
05:00 +10°C° 0 mm 1 mps 612 mmHg 95%
06:00 +9°C° 0 mm 1 mps 612 mmHg 96%
07:00 +10°C° 0 mm 1 mps 612 mmHg 94%
08:00 +11°C° 0 mm 1 mps 613 mmHg 92%
09:00 +12°C° 0 mm 1 mps 613 mmHg 90%
10:00 +13°C° 0 mm 2 mps 613 mmHg 88%
11:00 +13°C° 0 mm 2 mps 613 mmHg 85%
12:00 +14°C° 0 mm 2 mps 613 mmHg 83%
13:00 +14°C° 0 mm 2 mps 613 mmHg 81%
14:00 +14°C° 0 mm 2 mps 613 mmHg 79%
15:00 +15°C° 0 mm 2 mps 613 mmHg 77%
16:00 +14°C° 0 mm 2 mps 613 mmHg 82%
17:00 +13°C° 0 mm 2 mps 612 mmHg 87%
18:00 +11°C° 0 mm 1 mps 612 mmHg 92%
19:00 +10°C° 0 mm 2 mps 612 mmHg 91%
20:00 +10°C° 0 mm 2 mps 612 mmHg 91%
21:00 +10°C° 0 mm 2 mps 612 mmHg 91%
22:00 +10°C° 0 mm 2 mps 611 mmHg 92%
23:00 +10°C° 0 mm 2 mps 611 mmHg 92%

24 September, Thursday

Time Temperature Precipitation Wind Pressure Humidity
00:00 +10°C° 0 mm 2 mps 611 mmHg 92%
01:00 +10°C° 0 mm 2 mps 611 mmHg 92%
02:00 +9°C° 0 mm 2 mps 611 mmHg 92%
03:00 +9°C° 0 mm 2 mps 610 mmHg 91%
04:00 +9°C° 0 mm 2 mps 610 mmHg 91%
05:00 +8°C° 0 mm 2 mps 610 mmHg 91%
06:00 +8°C° 0 mm 2 mps 610 mmHg 92%
07:00 +9°C° 0 mm 2 mps 611 mmHg 87%
08:00 +12°C° 0 mm 2 mps 611 mmHg 82%
09:00 +13°C° 0 mm 2 mps 612 mmHg 77%
10:00 +14°C° 0 mm 2 mps 612 mmHg 72%
11:00 +16°C° 0 mm 2 mps 612 mmHg 68%
12:00 +17°C° 0 mm 2 mps 612 mmHg 64%
13:00 +17°C° 0.1 mm 2 mps 612 mmHg 64%
14:00 +17°C° 0.1 mm 2 mps 612 mmHg 64%
15:00 +17°C° 0.1 mm 2 mps 612 mmHg 65%
16:00 +15°C° 0.1 mm 2 mps 611 mmHg 72%
17:00 +13°C° 0.1 mm 1 mps 611 mmHg 79%
18:00 +11°C° 0.1 mm 1 mps 610 mmHg 86%
19:00 +11°C° 0 mm 1 mps 610 mmHg 86%
20:00 +10°C° 0 mm 1 mps 610 mmHg 87%
21:00 +10°C° 0 mm 1 mps 610 mmHg 88%
22:00 +10°C° 0 mm 1 mps 610 mmHg 88%
23:00 +9°C° 0 mm 1 mps 609 mmHg 88%
Show more